TimeEST,TemperatureF,Dew PointF,Humidity,Sea Level PressureIn,VisibilityMPH,Wind Direction,Wind SpeedMPH,Gust SpeedMPH,PrecipitationIn,Events,Conditions,WindDirDegrees,DateUTC
12:54 AM,34.0,21.9,61,30.19,10.0,ENE,8.1,-,N/A,,Clear,70,2012-12-07 05:54:00
1:54 AM,34.0,21.0,59,30.19,10.0,Variable,5.8,-,N/A,,Partly Cloudy,0,2012-12-07 06:54:00
2:54 AM,35.1,21.0,57,30.18,10.0,East,8.1,-,N/A,,Overcast,80,2012-12-07 07:54:00
3:54 AM,35.1,21.0,57,30.15,10.0,NE,6.9,-,N/A,,Mostly Cloudy,50,2012-12-07 08:54:00
4:54 AM,35.1,21.9,59,30.15,10.0,Variable,6.9,-,N/A,,Overcast,0,2012-12-07 09:54:00
5:54 AM,36.0,23.0,59,30.13,10.0,ENE,5.8,-,0.00,Rain,Light Rain,70,2012-12-07 10:54:00
6:54 AM,35.1,27.0,72,30.14,9.0,Calm,Calm,-,0.01,Rain,Light Rain,0,2012-12-07 11:54:00
7:11 AM,35.6,26.6,70,30.13,7.0,ENE,4.6,-,0.00,Rain,Light Rain,60,2012-12-07 12:11:00
7:54 AM,34.0,28.9,82,30.15,3.0,Calm,Calm,-,0.04,Rain,Light Rain,0,2012-12-07 12:54:00
8:20 AM,33.8,30.2,87,30.13,4.0,ENE,3.5,-,0.01,Rain,Light Rain,70,2012-12-07 13:20:00
8:54 AM,34.0,30.9,89,30.14,3.0,East,4.6,-,0.04,Rain,Light Rain,90,2012-12-07 13:54:00
9:41 AM,35.6,30.2,81,30.13,5.0,East,6.9,-,0.01,Rain,Light Rain,80,2012-12-07 14:41:00
9:49 AM,35.6,30.2,81,30.13,5.0,Variable,4.6,-,0.01,Rain,Light Rain,0,2012-12-07 14:49:00
9:54 AM,35.1,30.9,85,30.15,4.0,Variable,3.5,-,0.01,Rain,Light Rain,0,2012-12-07 14:54:00
10:54 AM,36.0,32.0,86,30.14,5.0,ENE,5.8,-,0.06,Rain,Light Rain,60,2012-12-07 15:54:00
11:54 AM,36.0,33.1,89,30.10,6.0,ENE,4.6,-,0.00,Rain,Light Rain,70,2012-12-07 16:54:00
12:12 PM,35.6,33.8,93,30.06,7.0,East,6.9,-,0.01,Rain,Light Rain,80,2012-12-07 17:12:00
12:54 PM,36.0,32.0,86,30.07,7.0,Calm,Calm,-,0.02,Rain,Light Rain,0,2012-12-07 17:54:00
1:54 PM,37.0,33.1,86,30.06,7.0,Calm,Calm,-,0.01,Rain,Light Rain,0,2012-12-07 18:54:00
2:54 PM,37.0,34.0,89,30.05,3.0,Calm,Calm,-,0.02,Rain,Rain,0,2012-12-07 19:54:00
3:15 PM,37.4,33.8,87,30.04,8.0,ENE,6.9,-,0.01,Rain,Light Rain,70,2012-12-07 20:15:00
3:54 PM,37.9,34.0,86,30.05,10.0,NE,4.6,-,0.01,,Overcast,50,2012-12-07 20:54:00
4:45 PM,37.4,33.8,87,30.03,10.0,East,4.6,-,N/A,,Overcast,100,2012-12-07 21:45:00
4:54 PM,37.9,35.1,89,30.05,10.0,Calm,Calm,-,0.00,Rain,Light Rain,0,2012-12-07 21:54:00
5:25 PM,37.4,35.6,93,30.04,9.0,Calm,Calm,-,0.00,Rain,Light Rain,0,2012-12-07 22:25:00
5:54 PM,37.9,35.1,89,30.06,7.0,Calm,Calm,-,0.01,Rain,Light Rain,0,2012-12-07 22:54:00
6:54 PM,37.9,36.0,93,30.06,7.0,Calm,Calm,-,0.01,Rain,Light Rain,0,2012-12-07 23:54:00
7:34 PM,37.4,35.6,93,30.04,6.0,ESE,3.5,-,0.02,Rain,Light Rain,110,2012-12-08 00:34:00
7:54 PM,37.4,35.6,93,30.04,6.0,Calm,Calm,-,N/A,Rain,Light Rain,0,2012-12-08 00:54:00
8:54 PM,37.9,36.0,93,30.04,4.0,Calm,Calm,-,0.04,Rain,Light Rain,0,2012-12-08 01:54:00
9:42 PM,37.4,35.6,93,30.02,4.0,East,3.5,-,0.03,Rain,Light Rain,100,2012-12-08 02:42:00
9:54 PM,37.9,36.0,93,30.03,4.0,East,3.5,-,0.04,Rain,Light Rain,100,2012-12-08 02:54:00
10:19 PM,37.4,35.6,93,30.01,4.0,Calm,Calm,-,0.02,Rain,Light Rain,0,2012-12-08 03:19:00
10:31 PM,37.4,37.4,100,30.01,4.0,Calm,Calm,-,N/A,Rain,Light Rain,0,2012-12-08 03:31:00
10:38 PM,37.4,37.4,100,30.00,4.0,Calm,Calm,-,0.04,Rain,Light Rain,0,2012-12-08 03:38:00
10:45 PM,37.4,35.6,93,30.00,4.0,East,3.5,-,0.05,Rain,Rain,100,2012-12-08 03:45:00
10:54 PM,37.9,36.0,93,30.01,4.0,Calm,Calm,-,0.06,Rain,Rain,0,2012-12-08 03:54:00
11:54 PM,37.9,37.0,97,30.00,4.0,Calm,Calm,-,0.04,Rain,Light Rain,0,2012-12-08 04:54:00